Weather History for KS25 - June, 2013

Change the Weather History Date:

Monday, June 17, 2013

  Actual Average (KISN) Record (KISN)
Temperature  
Mean Temperature 58 °F 64 °F  
Max Temperature 68 °F 77 °F 102 °F (1988)
Min Temperature 48 °F 50 °F 34 °F (2004)
Degree Days  
Heating Degree Days 7 3  
Month to date heating degree days 88  
Since 1 June heating degree days 88  
Since 1 July heating degree days 8962  
Cooling Degree Days 0 2  
Month to date cooling degree days 27  
Year to date cooling degree days 40  
Since 1 June cooling degree days 27  
Growing Degree Days 8 (Base 50)    
Moisture  
Dew Point 52 °F    
Average Humidity 80    
Maximum Humidity 100    
Minimum Humidity 49    
Precipitation  
Precipitation 0.00 in 0.09 in 1.70 in (1944)
Month to date precipitation 1.35  
Year to date precipitation 5.96  
Sea Level Pressure  
Sea Level Pressure 30.09 in    
Wind  
Wind Speed 5 mph (North)    
Max Wind Speed 13 mph    
Max Gust Speed -    
Visibility 10 miles    
Events      
T = Trace of Precipitation, MM = Missing Value Source: NWS Daily Summary

Daily Weather History Graph

Daily Weather History Graph

Search for Another Location

Airport or City:

Trip Planner

Search our weather history database for the weather conditions in past years. The results will help you decide how hot, cold, wet, or windy it might be!

Date:

Astronomy

Jun. 17, 2013 Rise Set
Actual Time 5:53 AM CDT 9:54 PM CDT
Civil Twilight 5:12 AM CDT 10:35 PM CDT
Nautical Twilight 4:15 AM CDT 11:32 PM CDT
Astronomical Twilight 2:42 AM CDT 1:06 AM CDT
Moon 3:13 PM CDT (6/17) 1:55 AM CDT (6/17)
Length of Visible Light 17h 22m
Length of Day
16h 00m
First Quarter, 60% of the Moon is Illuminated
Jun 17
First Quarter
Jun 23
Full
Jun 29
Last Quarter
Jul 8
New
Jul 15
First Quarter

Hourly Weather History & Observations

Time (CDT) Temp. Dew Point Humidity Pressure Visibility Wind Dir Wind Speed Gust Speed Precip Events Conditions
12:15 AM 55.4 °F 50.0 °F 82% 30.04 in 10.0 mi WNW 9.2 mph - N/A   Clear
12:35 AM 55.4 °F 50.0 °F 82% 30.04 in 10.0 mi WNW 9.2 mph - N/A   Clear
12:55 AM 55.4 °F 50.0 °F 82% 30.05 in 10.0 mi NW 9.2 mph - N/A   Clear
1:15 AM 55.4 °F 50.0 °F 82% 30.05 in 10.0 mi NW 6.9 mph - N/A   Clear
1:35 AM 55.4 °F 50.0 °F 82% 30.05 in 10.0 mi NW 6.9 mph - N/A   Clear
1:55 AM 55.4 °F 50.0 °F 82% 30.06 in 10.0 mi WNW 3.5 mph - N/A   Clear
2:15 AM 51.8 °F 50.0 °F 94% 30.07 in 10.0 mi Calm Calm - N/A   Clear
2:35 AM 53.6 °F 50.0 °F 88% 30.06 in 10.0 mi WNW 5.8 mph - N/A   Clear
2:55 AM 53.6 °F 50.0 °F 88% 30.07 in 10.0 mi Calm Calm - N/A   Clear
3:15 AM 51.8 °F 50.0 °F 94% 30.07 in 10.0 mi Calm Calm - N/A   Clear
3:35 AM 50.0 °F 50.0 °F 100% 30.07 in 10.0 mi Calm Calm - N/A   Clear
3:55 AM 50.0 °F 48.2 °F 94% 30.06 in 10.0 mi NNW 5.8 mph - N/A   Clear
4:15 AM 50.0 °F 50.0 °F 100% 30.06 in 10.0 mi NNW 3.5 mph - N/A   Clear
4:35 AM 50.0 °F 50.0 °F 100% 30.07 in 10.0 mi NW 4.6 mph - N/A   Clear
4:55 AM 48.2 °F 48.2 °F 100% 30.07 in 10.0 mi Calm Calm - N/A   Clear
5:15 AM 48.2 °F 48.2 °F 100% 30.07 in 10.0 mi Calm Calm - N/A   Scattered Clouds
5:35 AM 48.2 °F 48.2 °F 100% 30.08 in 10.0 mi South 3.5 mph - N/A   Mostly Cloudy
5:55 AM 50.0 °F 50.0 °F 100% 30.08 in 10.0 mi Calm Calm - N/A   Overcast
6:15 AM 51.8 °F 51.8 °F 100% 30.08 in 10.0 mi Calm Calm - N/A   Overcast
6:35 AM 51.8 °F 51.8 °F 100% 30.09 in 10.0 mi Calm Calm - N/A   Overcast
6:55 AM 53.6 °F 53.6 °F 100% 30.10 in 10.0 mi Calm Calm - N/A   Overcast
7:15 AM 53.6 °F 53.6 °F 100% 30.10 in 10.0 mi NW 5.8 mph - N/A   Overcast
7:35 AM 53.6 °F 53.6 °F 100% 30.10 in 8.0 mi WNW 5.8 mph - N/A   Overcast
7:55 AM 53.6 °F 53.6 °F 100% 30.11 in 9.0 mi WNW 4.6 mph - N/A   Overcast
8:15 AM 53.6 °F 53.6 °F 100% 30.11 in 3.0 mi West 3.5 mph - N/A   Overcast
8:35 AM 53.6 °F 53.6 °F 100% 30.12 in 9.0 mi Calm Calm - N/A   Overcast
8:55 AM 53.6 °F 53.6 °F 100% 30.12 in 10.0 mi NW 3.5 mph - N/A   Overcast
9:15 AM 55.4 °F 53.6 °F 94% 30.12 in 10.0 mi NNW 3.5 mph - N/A   Overcast
9:35 AM 55.4 °F 53.6 °F 94% 30.12 in 10.0 mi NW 3.5 mph - N/A   Overcast
9:55 AM 57.2 °F 53.6 °F 88% 30.12 in 10.0 mi Calm Calm - N/A   Overcast
10:15 AM 57.2 °F 53.6 °F 88% 30.12 in 10.0 mi Calm Calm - N/A   Overcast
10:35 AM 57.2 °F 53.6 °F 88% 30.12 in 10.0 mi North 4.6 mph - N/A   Overcast
10:55 AM 57.2 °F 53.6 °F 88% 30.12 in 10.0 mi Calm Calm - N/A   Overcast
11:15 AM 59.0 °F 53.6 °F 82% 30.13 in 10.0 mi North 3.5 mph - N/A   Overcast
11:35 AM 59.0 °F 53.6 °F 82% 30.13 in 10.0 mi NW 4.6 mph - N/A   Mostly Cloudy
11:55 AM 60.8 °F 53.6 °F 77% 30.13 in 10.0 mi North 4.6 mph - N/A   Mostly Cloudy
12:15 PM 59.0 °F 53.6 °F 82% 30.13 in 10.0 mi Calm Calm - N/A   Mostly Cloudy
12:35 PM 60.8 °F 53.6 °F 77% 30.13 in 10.0 mi SSW 3.5 mph - N/A   Mostly Cloudy
12:55 PM 60.8 °F 53.6 °F 77% 30.12 in 10.0 mi SSW 3.5 mph - N/A   Mostly Cloudy
1:15 PM 62.6 °F 53.6 °F 72% 30.12 in 10.0 mi SW 4.6 mph - N/A   Scattered Clouds
1:35 PM 62.6 °F 53.6 °F 72% 30.11 in 10.0 mi SW 6.9 mph - N/A   Partly Cloudy
1:55 PM 64.4 °F 53.6 °F 68% 30.11 in 10.0 mi WSW 5.8 mph - N/A   Clear
2:15 PM 66.2 °F 53.6 °F 64% 30.10 in 10.0 mi WSW 4.6 mph - N/A   Partly Cloudy
2:35 PM 66.2 °F 53.6 °F 64% 30.10 in 10.0 mi WSW 6.9 mph - N/A   Partly Cloudy
2:55 PM 64.4 °F 51.8 °F 64% 30.10 in 10.0 mi NNE 12.7 mph - N/A   Mostly Cloudy
3:15 PM 62.6 °F 51.8 °F 68% 30.10 in 10.0 mi NE 8.1 mph - N/A   Mostly Cloudy
3:35 PM 62.6 °F 53.6 °F 72% 30.11 in 10.0 mi NNE 8.1 mph - N/A   Overcast
3:55 PM 64.4 °F 53.6 °F 68% 30.10 in 10.0 mi NNE 6.9 mph - N/A   Mostly Cloudy
4:15 PM 64.4 °F 53.6 °F 68% 30.10 in 10.0 mi NNE 6.9 mph - N/A   Scattered Clouds
4:35 PM 64.4 °F 51.8 °F 64% 30.10 in 10.0 mi North 6.9 mph - N/A   Mostly Cloudy
4:55 PM 64.4 °F 51.8 °F 64% 30.10 in 10.0 mi NNE 6.9 mph - N/A   Mostly Cloudy
5:15 PM 64.4 °F 53.6 °F 68% 30.10 in 10.0 mi NNE 6.9 mph - N/A   Mostly Cloudy
5:35 PM 66.2 °F 51.8 °F 60% 30.10 in 10.0 mi NE 4.6 mph - N/A   Mostly Cloudy
5:55 PM 66.2 °F 50.0 °F 56% 30.09 in 10.0 mi Calm Calm - N/A   Mostly Cloudy
6:15 PM 66.2 °F 50.0 °F 56% 30.09 in 10.0 mi NE 5.8 mph - N/A   Mostly Cloudy
6:35 PM 66.2 °F 48.2 °F 52% 30.09 in 10.0 mi North 5.8 mph - N/A   Partly Cloudy
6:55 PM 68.0 °F 48.2 °F 49% 30.08 in 10.0 mi Calm Calm - N/A   Clear
7:15 PM 68.0 °F 50.0 °F 52% 30.07 in 10.0 mi NE 5.8 mph - N/A   Clear
7:35 PM 66.2 °F 48.2 °F 52% 30.07 in 10.0 mi ESE 4.6 mph - N/A   Clear
7:55 PM 66.2 °F 51.8 °F 60% 30.07 in 10.0 mi NE 4.6 mph - N/A   Clear
8:15 PM 66.2 °F 51.8 °F 60% 30.07 in 10.0 mi ENE 3.5 mph - N/A   Scattered Clouds
8:35 PM 66.2 °F 51.8 °F 60% 30.07 in 10.0 mi East 6.9 mph - N/A   Mostly Cloudy
8:55 PM 64.4 °F 50.0 °F 59% 30.07 in 10.0 mi ENE 5.8 mph - N/A   Partly Cloudy
9:15 PM 64.4 °F 51.8 °F 64% 30.07 in 10.0 mi East 3.5 mph - N/A   Clear
9:35 PM 62.6 °F 51.8 °F 68% 30.07 in 10.0 mi East 4.6 mph - N/A   Clear
9:55 PM 57.2 °F 51.8 °F 82% 30.07 in 10.0 mi East 3.5 mph - N/A   Clear
10:15 PM 55.4 °F 50.0 °F 82% 30.08 in 10.0 mi East 4.6 mph - N/A   Clear
10:35 PM 53.6 °F 50.0 °F 88% 30.08 in 10.0 mi East 5.8 mph - N/A   Clear
10:55 PM 53.6 °F 50.0 °F 88% 30.09 in 10.0 mi ESE 8.1 mph - N/A   Clear
11:15 PM 53.6 °F 50.0 °F 88% 30.09 in 10.0 mi SE 8.1 mph - N/A   Clear
11:35 PM 53.6 °F 50.0 °F 88% 30.09 in 10.0 mi SE 8.1 mph - N/A   Clear
11:55 PM 53.6 °F 50.0 °F 88% 30.09 in 10.0 mi ESE 6.9 mph - N/A   Clear